KANYINI (60556 NORAD) Tracking and Keplerian Element Data

This shows tracking and keplerian element data for the satellite.

Feedback or suggestion? Click here.




ElementValue
Catalog60556
NameKANYINI
Epoch Orbit863
Epoch Day286.72052506
Epoch Year2024
RAAN1.3407
Inclination97.4365
Eccentricity0.000177
Argument of Perigee261.0671
Mean Anonmoly99.0363
Mean Motion15.18862882
Decay Rate0.00014243
L11 60556U 24149CS 24286.72052506 .00014243 00000+0 68580-3 0 9994
L22 60556 97.4365 1.3407 0001770 261.0671 99.0363 15.18862882 8637



Live tracking and technical data element details for KANYINI (NORAD 60556). KANYINI can be tracked NOW for your location showing map with azimuth and elevation plus other details from your city location.







IsCatalogInMostPopularTable: catalog: 60556, numindb: 5
Update: records affected: 1



GetName: 60556 KANYINI

Hit Count: updated at: Fri, 06 Dec 2024 11:04:24 GMT